ICEYE-X20 (52759 NORAD) Tracking and Keplerian Element Data

This shows tracking and keplerian element data for the satellite.

Feedback or suggestion? Click here.




ElementValue
Catalog52759
NameICEYE-X20
Epoch Orbit15055
Epoch Day35.14631748
Epoch Year2025
RAAN180.3952
Inclination97.5864
Eccentricity0.000574
Argument of Perigee2.092
Mean Anonmoly358.0358
Mean Motion15.57324041
Decay Rate0.00044658
L11 52759U 22057AD 25035.14631748 .00044658 00000+0 61007-3 0 9996
L22 52759 97.5864 180.3952 0005740 2.0920 358.0358 15.57324041150556



Live tracking and technical data element details for ICEYE-X20 (NORAD 52759). ICEYE-X20 can be tracked NOW for your location showing map with azimuth and elevation plus other details from your city location.







IsCatalogInMostPopularTable: catalog: 52759, numindb: 70
Update: records affected: 1



GetName: 52759 ICEYE-X20

Hit Count: updated at: Wed, 18 Jun 2025 04:55:59 GMT